EN

Hourly Weather Polynovskiy

Today, 1 October, Thursday

Time Temperature Precipitation Wind Pressure Humidity
00:00 +14°C° 0 mm 7 mps 754 mmHg 59%
01:00 +14°C° 0 mm 7 mps 754 mmHg 59%
02:00 +14°C° 0 mm 7 mps 753 mmHg 59%
03:00 +14°C° 0 mm 7 mps 754 mmHg 60%
04:00 +13°C° 0 mm 8 mps 754 mmHg 59%
05:00 +13°C° 0 mm 8 mps 754 mmHg 58%
06:00 +13°C° 0 mm 8 mps 754 mmHg 56%
07:00 +16°C° 0 mm 9 mps 753 mmHg 50%
08:00 +17°C° 0 mm 11 mps 753 mmHg 44%
09:00 +19°C° 0 mm 12 mps 753 mmHg 38%
10:00 +21°C° 0 mm 12 mps 753 mmHg 35%
11:00 +22°C° 0 mm 12 mps 753 mmHg 33%
12:00 +23°C° 0 mm 12 mps 753 mmHg 30%
13:00 +23°C° 0 mm 12 mps 752 mmHg 30%
14:00 +23°C° 0 mm 12 mps 752 mmHg 30%
15:00 +23°C° 0 mm 12 mps 752 mmHg 30%
16:00 +22°C° 0 mm 11 mps 752 mmHg 34%
17:00 +19°C° 0 mm 10 mps 752 mmHg 37%
18:00 +18°C° 0 mm 9 mps 753 mmHg 41%
19:00 +17°C° 0 mm 9 mps 753 mmHg 45%
20:00 +17°C° 0 mm 8 mps 753 mmHg 49%
21:00 +16°C° 0 mm 8 mps 753 mmHg 53%
22:00 +16°C° 0 mm 8 mps 753 mmHg 53%
23:00 +16°C° 0 mm 7 mps 753 mmHg 53%

Tomorrow, 2 October, Friday

Time Temperature Precipitation Wind Pressure Humidity
00:00 +16°C° 0 mm 7 mps 753 mmHg 53%
01:00 +16°C° 0 mm 6 mps 753 mmHg 53%
02:00 +15°C° 0 mm 6 mps 753 mmHg 53%
03:00 +15°C° 0 mm 6 mps 753 mmHg 53%
04:00 +15°C° 0 mm 6 mps 753 mmHg 54%
05:00 +15°C° 0 mm 5 mps 753 mmHg 55%
06:00 +15°C° 0 mm 5 mps 753 mmHg 56%
07:00 +16°C° 0 mm 7 mps 754 mmHg 52%
08:00 +18°C° 0 mm 8 mps 754 mmHg 47%
09:00 +21°C° 0 mm 9 mps 754 mmHg 43%
10:00 +22°C° 0 mm 9 mps 754 mmHg 41%
11:00 +23°C° 0 mm 9 mps 754 mmHg 39%
12:00 +24°C° 0 mm 9 mps 754 mmHg 37%
13:00 +24°C° 0 mm 9 mps 754 mmHg 37%
14:00 +24°C° 0 mm 9 mps 754 mmHg 37%
15:00 +24°C° 0 mm 9 mps 754 mmHg 37%
16:00 +23°C° 0 mm 9 mps 754 mmHg 40%
17:00 +22°C° 0 mm 8 mps 755 mmHg 43%
18:00 +20°C° 0 mm 7 mps 755 mmHg 46%
19:00 +20°C° 0 mm 7 mps 755 mmHg 50%
20:00 +18°C° 0 mm 7 mps 756 mmHg 53%
21:00 +17°C° 0 mm 7 mps 756 mmHg 57%
22:00 +17°C° 0.6 mm 6 mps 756 mmHg 61%
23:00 +17°C° 0.6 mm 5 mps 756 mmHg 65%

Day after tomorrow, 3 October, Saturday

Time Temperature Precipitation Wind Pressure Humidity
00:00 +17°C° 0.6 mm 4 mps 756 mmHg 69%
01:00 +17°C° 0.8 mm 4 mps 756 mmHg 71%
02:00 +17°C° 0.8 mm 3 mps 756 mmHg 72%
03:00 +17°C° 0.8 mm 3 mps 757 mmHg 74%
04:00 +17°C° 0.1 mm 4 mps 757 mmHg 72%
05:00 +15°C° 0.1 mm 4 mps 757 mmHg 71%
06:00 +15°C° 0.1 mm 4 mps 757 mmHg 70%
07:00 +16°C° 0 mm 5 mps 757 mmHg 71%
08:00 +16°C° 0 mm 5 mps 758 mmHg 72%
09:00 +16°C° 0 mm 6 mps 758 mmHg 73%
10:00 +17°C° 0 mm 6 mps 758 mmHg 69%
11:00 +19°C° 0 mm 6 mps 758 mmHg 66%
12:00 +18°C° 0 mm 7 mps 758 mmHg 62%
13:00 +20°C° 0 mm 7 mps 758 mmHg 58%
14:00 +20°C° 0 mm 7 mps 758 mmHg 53%
15:00 +20°C° 0 mm 7 mps 758 mmHg 48%
16:00 +20°C° 0 mm 6 mps 758 mmHg 51%
17:00 +19°C° 0 mm 6 mps 758 mmHg 54%
18:00 +17°C° 0 mm 5 mps 758 mmHg 57%
19:00 +17°C° 0 mm 5 mps 758 mmHg 60%
20:00 +17°C° 0 mm 5 mps 758 mmHg 63%
21:00 +17°C° 0 mm 6 mps 759 mmHg 66%
22:00 +16°C° 0 mm 6 mps 758 mmHg 70%
23:00 +16°C° 0 mm 5 mps 758 mmHg 73%

4 October, Sunday

Time Temperature Precipitation Wind Pressure Humidity
00:00 +16°C° 0 mm 5 mps 758 mmHg 76%
01:00 +15°C° 0 mm 5 mps 758 mmHg 77%
02:00 +15°C° 0 mm 4 mps 758 mmHg 77%
03:00 +14°C° 0 mm 4 mps 758 mmHg 78%
04:00 +14°C° 0 mm 4 mps 758 mmHg 75%
05:00 +14°C° 0 mm 4 mps 758 mmHg 72%
06:00 +13°C° 0 mm 4 mps 759 mmHg 69%
07:00 +15°C° 0 mm 5 mps 759 mmHg 64%
08:00 +16°C° 0 mm 5 mps 759 mmHg 60%
09:00 +19°C° 0 mm 6 mps 759 mmHg 55%
10:00 +20°C° 0 mm 6 mps 759 mmHg 49%
11:00 +21°C° 0 mm 6 mps 758 mmHg 43%
12:00 +23°C° 0 mm 6 mps 758 mmHg 38%
13:00 +23°C° 0 mm 6 mps 758 mmHg 35%
14:00 +23°C° 0 mm 7 mps 758 mmHg 32%
15:00 +24°C° 0 mm 7 mps 758 mmHg 29%
16:00 +22°C° 0 mm 7 mps 758 mmHg 32%
17:00 +21°C° 0 mm 6 mps 758 mmHg 36%
18:00 +20°C° 0 mm 6 mps 758 mmHg 40%
19:00 +19°C° 0 mm 6 mps 758 mmHg 49%
20:00 +17°C° 0 mm 6 mps 759 mmHg 57%
21:00 +16°C° 0 mm 6 mps 759 mmHg 66%
22:00 +15°C° 0 mm 6 mps 759 mmHg 68%
23:00 +15°C° 0 mm 6 mps 759 mmHg 70%

5 October, Monday

Time Temperature Precipitation Wind Pressure Humidity
00:00 +14°C° 0 mm 5 mps 759 mmHg 72%
01:00 +14°C° 0 mm 5 mps 759 mmHg 68%
02:00 +14°C° 0 mm 5 mps 759 mmHg 64%
03:00 +13°C° 0 mm 4 mps 759 mmHg 61%
04:00 +13°C° 0 mm 4 mps 759 mmHg 61%
05:00 +13°C° 0 mm 4 mps 760 mmHg 62%
06:00 +13°C° 0 mm 4 mps 760 mmHg 63%
07:00 +15°C° 0 mm 5 mps 760 mmHg 58%
08:00 +16°C° 0 mm 6 mps 760 mmHg 52%
09:00 +19°C° 0 mm 6 mps 760 mmHg 47%
10:00 +21°C° 0 mm 7 mps 760 mmHg 40%
11:00 +22°C° 0 mm 7 mps 760 mmHg 33%
12:00 +24°C° 0 mm 8 mps 760 mmHg 25%
13:00 +24°C° 0 mm 8 mps 760 mmHg 26%
14:00 +24°C° 0 mm 8 mps 759 mmHg 28%
15:00 +24°C° 0 mm 8 mps 759 mmHg 29%
16:00 +23°C° 0 mm 8 mps 759 mmHg 34%
17:00 +22°C° 0 mm 7 mps 759 mmHg 38%
18:00 +20°C° 0 mm 7 mps 759 mmHg 43%
19:00 +18°C° 0 mm 7 mps 760 mmHg 49%
20:00 +17°C° 0 mm 7 mps 760 mmHg 56%
21:00 +16°C° 0 mm 6 mps 760 mmHg 63%
22:00 +15°C° 0 mm 6 mps 760 mmHg 66%
23:00 +15°C° 0 mm 5 mps 760 mmHg 69%

6 October, Tuesday

Time Temperature Precipitation Wind Pressure Humidity
00:00 +14°C° 0 mm 5 mps 760 mmHg 72%
01:00 +14°C° 0 mm 5 mps 760 mmHg 69%
02:00 +14°C° 0 mm 5 mps 760 mmHg 65%
03:00 +14°C° 0 mm 5 mps 760 mmHg 61%
04:00 +13°C° 0 mm 5 mps 760 mmHg 63%
05:00 +13°C° 0 mm 5 mps 760 mmHg 64%
06:00 +13°C° 0 mm 5 mps 760 mmHg 65%
07:00 +14°C° 0 mm 6 mps 760 mmHg 62%
08:00 +16°C° 0 mm 6 mps 760 mmHg 58%
09:00 +17°C° 0 mm 7 mps 760 mmHg 54%
10:00 +20°C° 0 mm 7 mps 759 mmHg 44%
11:00 +22°C° 0 mm 8 mps 759 mmHg 34%
12:00 +24°C° 0 mm 9 mps 759 mmHg 23%
13:00 +24°C° 0 mm 9 mps 759 mmHg 23%
14:00 +24°C° 0 mm 9 mps 758 mmHg 23%
15:00 +24°C° 0 mm 9 mps 758 mmHg 22%
16:00 +23°C° 0 mm 9 mps 758 mmHg 27%
17:00 +21°C° 0 mm 8 mps 758 mmHg 31%
18:00 +18°C° 0 mm 7 mps 758 mmHg 36%
19:00 +17°C° 0 mm 7 mps 758 mmHg 45%
20:00 +17°C° 0 mm 7 mps 758 mmHg 55%
21:00 +16°C° 0 mm 7 mps 759 mmHg 64%
22:00 +15°C° 0 mm 6 mps 759 mmHg 68%
23:00 +15°C° 0 mm 6 mps 759 mmHg 72%
Show more

We Need Your Consent

Meteoprog and our Service Providers may store and access personal data such as cookies, device identifiers or other similar technologies on your device and process such data to personalise content and ads, as well as provide social media features and to analyse the traffic.

  • Store and/or access information on your device

    Cookies, device identifiers or other information can be stored or accessed on your device for the purposes indicated above.

  • Personalised ads and content, ad and content measurement, audience insights, and products development

    Ads and content can be personalised based on a profile. More data can be added to better personalise ads and content. Ad and content performance can be measured. Insights about the audience who saw the ads and content can be derived. Such data can be used to develop or improve user’s experience, systems and software.

By clicking ‘I Agree’ you will allow the use of indicated cookies, device identifiers, web beacons or other similar technologies. Your settings can be changed in the browser on your device.

For certain purposes, legitimate interests may be relied on, rather than consent. You can read more about this in our Privacy and Cookie Policy.